Weather History for Clayton Lake, ME

Change the Weather History Date:

Wednesday, January 9, 2013

  Actual Average Record
Temperature  
Mean Temperature 18 °F -  
Max Temperature 33 °F 17 °F 33 °F (2000)
Min Temperature 4 °F -2 °F -27 °F (2004)
Degree Days  
Heating Degree Days 46    
Moisture  
Dew Point 17 °F    
Average Humidity 82    
Maximum Humidity 91    
Minimum Humidity 70    
Precipitation  
Precipitation 1.05 in - - ()
Sea Level Pressure  
Sea Level Pressure 30.11 in    
Wind  
Wind Speed 4 mph (SSE)    
Max Wind Speed 13 mph    
Max Gust Speed 23 mph    
Averages and records for this station are not official NWS values.
T = Trace of Precipitation, MM = Missing Value Source: NWS Daily Summary

Daily Weather History Graph

Daily Weather History Graph

Search for Another Location

Airport:

Trip Planner

Search our weather history database for the weather conditions in past years. The results will help you decide how hot, cold, wet, or windy it might be!

Date:

Astronomy

Jan. 09, 2013 Rise Set
Actual Time 7:20 AM EST 4:10 PM EST
Civil Twilight 6:46 AM EST 4:44 PM EST
Nautical Twilight 6:08 AM EST 5:22 PM EST
Astronomical Twilight 5:32 AM EST 5:58 PM EST
Moon 4:56 AM EST (1/9) 2:07 PM EST (1/9)
Length of Visible Light 9h 57m
Length of Day
8h 49m
Waning Crescent, 6% of the Moon is Illuminated
Jan 9
Waning Crescent
Jan 11
New
Jan 18
First Quarter
Jan 26
Full
Feb 3
Last Quarter

Hourly Weather History & Observations

Time (EST) Temp. Windchill Dew Point Humidity Pressure Visibility Wind Dir Wind Speed Gust Speed Precip Events Conditions
12:25 AM - - - N/A% 30.31 in - Calm Calm - N/A   Unknown
1:25 AM - - - N/A% 30.31 in - Calm Calm - N/A   Unknown
2:25 AM - - - N/A% 30.27 in - Calm Calm - N/A   Unknown
3:25 AM 11.1 °F - 8.1 °F 87% 30.35 in - Calm Calm - N/A   Unknown
4:25 AM - - - N/A% 30.33 in - Calm Calm - 0.01 in   Unknown
5:25 AM 5.5 °F - 2.7 °F 88% 30.34 in - Calm Calm - 0.01 in   Unknown
6:25 AM 4.6 °F - 1.9 °F 89% 30.36 in - Calm Calm - 0.00 in   Unknown
7:25 AM 5.5 °F - 3.4 °F 91% 30.38 in - Calm Calm - 0.04 in   Unknown
8:28 AM 7.5 °F - 5.2 °F 90% 30.37 in - Calm Calm - 0.03 in   Unknown
9:25 AM - - - N/A% 30.35 in - South 10.4 mph 16.1 mph 0.07 in   Unknown
10:27 AM 27.3 °F 23.4 °F 24.6 °F 90% 30.31 in - Variable 3.5 mph - 0.12 in   Unknown
11:25 AM 30.7 °F 24.9 °F 23.5 °F 75% 30.22 in - Variable 5.8 mph - 0.33 in   Unknown
12:27 PM 31.8 °F 23.9 °F 23.0 °F 70% 30.18 in - SE 9.2 mph 23.0 mph N/A   Unknown
1:25 PM 31.6 °F 22.1 °F 24.1 °F 74% 30.11 in - South 12.7 mph 16.1 mph 0.02 in   Unknown
2:25 PM 32.2 °F 23.2 °F 24.1 °F 72% 30.07 in - SSE 11.5 mph 23.0 mph 0.01 in   Unknown
3:25 PM 31.8 °F 22.8 °F 24.4 °F 74% 30.01 in - SSE 11.5 mph 20.7 mph N/A   Unknown
4:25 PM 31.3 °F 22.1 °F 25.5 °F 79% 29.96 in - SSE 11.5 mph 23.0 mph N/A   Unknown
5:25 PM 31.1 °F 21.4 °F 26.8 °F 84% 29.91 in - South 12.7 mph 21.9 mph 0.02 in   Unknown
6:25 PM 30.9 °F 22.2 °F - N/A% 29.84 in - South 10.4 mph 17.3 mph 0.02 in   Unknown
7:26 PM - - - N/A% 29.81 in - South 9.2 mph 17.3 mph 0.01 in   Unknown
8:25 PM 30.7 °F 24.1 °F - N/A% 29.76 in - South 6.9 mph 15.0 mph 0.02 in   Unknown
9:25 PM 32.7 °F 23.4 °F - N/A% 29.73 in - South 12.7 mph - N/A   Unknown
10:25 PM 33.1 °F 28.7 °F - N/A% 29.72 in - Variable 4.6 mph 15.0 mph 0.29 in   Unknown
11:25 PM 33.3 °F 28.9 °F - N/A% 29.72 in - Variable 4.6 mph 11.5 mph 0.05 in   Unknown